QPF
0.00 0.00 0.00 0.00 0.00 0.00 0.00 0.00 0.00 0.00 0.00 0.00 0.00 0.00 0.00 0.00 0.00 0.00 0.00 0.00 0.00 0.00 0.00 0.00 0.00 0.00 0.00 0.00 0.00 0.00 0.00 0.00 0.00 0.00 0.00 0.00 0.00 0.00 0.00 0.00 0.00 0.00 0.00 0.00 0.01
0.00 0.00 0.00 0.00 0.00 0.00 0.00 0.00 0.00 0.00 0.00 0.00 0.00 0.00 0.00 0.00 0.00 0.00 0.00 0.00 0.00 0.00 0.00 0.00 0.00 0.00 0.00 0.00 0.00 0.00 0.00 0.00 0.00 0.00 0.00 0.00 0.00 0.00 0.00 0.00 0.00 0.00 0.00 0.00 0.00
0.00 0.00 0.00 0.00 0.00 0.00 0.00 0.00 0.00 0.00 0.00 0.00 0.00 0.00 0.00 0.00 0.00 0.00 0.00 0.00 0.00 0.00 0.00 0.00 0.00 0.00 0.00 0.00 0.00 0.00 0.00 0.00 0.00 0.00 0.00 0.00 0.00 0.00 0.00 0.00 0.00 0.00 0.00 0.00 0.00
0.00 0.00 0.00 0.00 0.00 0.00 0.00 0.00 0.00 0.00 0.00 0.00 0.00 0.00 0.00 0.00 0.00 0.00 0.00 0.00 0.00 0.00 0.00 0.00 0.00 0.00 0.00 0.00 0.00 0.00 0.00 0.00 0.00 0.00 0.00 0.00 0.00 0.00 0.00 0.00 0.00 0.00 0.00 0.00 0.01
0.00 0.00 0.00 0.00 0.00 0.00 0.00 0.00 0.00 0.00 0.00 0.00 0.00 0.00 0.00 0.00 0.00 0.00 0.00 0.00 0.00 0.00 0.00 0.00 0.00 0.00 0.00 0.00 0.00 0.00 0.00 0.00 0.00 0.00 0.00 0.00 0.00 0.00 0.00 0.00 0.00 0.00 0.00 0.00 0.00
0.00 0.00 0.00 0.00 0.00 0.00 0.00 0.00 0.00 0.00 0.00 0.00 0.00 0.00 0.00 0.00 0.00 0.00 0.00 0.00 0.00 0.00 0.00 0.00 0.00 0.00 0.00 0.00 0.00 0.00 0.00 0.00 0.00 0.00 0.00 0.00 0.00 0.00 0.00 0.00 0.00 0.00 0.00 0.00 0.00
0.00 0.00 0.00 0.00 0.00 0.00 0.00 0.00 0.00 0.00 0.00 0.00 0.00 0.00 0.00 0.00 0.00 0.00 0.00 0.00 0.00 0.00 0.00 0.00 0.00 0.00 0.00 0.00 0.00 0.00 0.00 0.00 0.00 0.00 0.00 0.00 0.00 0.00 0.00 0.00 0.00 0.00 0.00 0.00 0.00
0.00 0.00 0.00 0.00 0.00 0.00 0.00 0.00 0.00 0.00 0.00 0.00 0.00 0.00 0.00 0.00 0.00 0.00 0.00 0.00 0.00 0.00 0.00 0.00 0.00 0.00 0.00 0.00 0.00 0.00 0.00 0.00 0.00 0.00 0.00 0.00 0.00 0.00 0.00 0.00 0.00 0.00 0.00 0.00 0.00
0.00 0.00 0.00 0.00 0.00 0.00 0.00 0.00 0.00 0.00 0.00 0.00 0.00 0.00 0.00 0.00 0.00 0.00 0.00 0.00 0.00 0.00 0.00 0.00 0.00 0.00 0.00 0.00 0.00 0.00 0.00 0.00 0.00 0.00 0.00 0.00 0.00 0.00 0.00 0.00 0.00 0.00 0.00 0.00 0.00
0.00 0.00 0.00 0.00 0.00 0.00 0.00 0.00 0.00 0.00 0.00 0.00 0.00 0.00 0.00 0.00 0.00 0.00 0.00 0.00 0.00 0.00 0.00 0.00 0.00 0.00 0.00 0.00 0.00 0.00 0.00 0.00 0.00 0.00 0.00 0.00 0.00 0.00 0.00 0.00 0.00 0.00 0.00 0.00 0.01
0.00 0.00 0.00 0.00 0.00 0.00 0.00 0.00 0.00 0.00 0.00 0.00 0.00 0.00 0.00 0.00 0.00 0.00 0.00 0.00 0.00 0.00 0.00 0.00 0.00 0.00 0.00 0.00 0.00 0.00 0.00 0.00 0.00 0.00 0.00 0.00 0.00 0.00 0.00 0.00 0.00 0.00 0.00 0.00 0.01
0.00 0.00 0.00 0.00 0.00 0.00 0.00 0.00 0.00 0.00 0.00 0.00 0.00 0.00 0.00 0.00 0.00 0.00 0.00 0.00 0.00 0.00 0.00 0.00 0.00 0.00 0.00 0.00 0.00 0.00 0.00 0.00 0.00 0.00 0.00 0.00 0.00 0.00 0.00 0.00 0.00 0.00 0.00 0.00 0.00
0.00 0.00 0.00 0.00 0.00 0.00 0.00 0.00 0.00 0.00 0.00 0.00 0.00 0.00 0.00 0.00 0.00 0.00 0.00 0.00 0.00 0.00 0.00 0.00 0.00 0.00 0.00 0.00 0.00 0.00 0.00 0.00 0.00 0.00 0.00 0.00 0.00 0.00 0.00 0.00 0.00 0.00 0.00 0.00 0.00
0.00 0.00 0.00 0.00 0.00 0.00 0.00 0.00 0.00 0.00 0.00 0.00 0.00 0.00 0.00 0.00 0.00 0.00 0.00 0.00 0.00 0.00 0.00 0.00 0.00 0.00 0.00 0.00 0.00 0.00 0.00 0.00 0.00 0.00 0.00 0.00 0.00 0.00 0.00 0.00 0.00 0.00 0.00 0.00 0.00
0.00 0.00 0.00 0.00 0.00 0.00 0.00 0.00 0.00 0.00 0.00 0.00 0.00 0.00 0.00 0.00 0.00 0.00 0.00 0.00 0.00 0.00 0.00 0.00 0.00 0.00 0.00 0.00 0.00 0.00 0.00 0.00 0.00 0.00 0.00 0.00 0.00 0.00 0.00 0.00 0.00 0.00 0.00 0.00 0.00
0.00 0.00 0.00 0.00 0.00 0.00 0.00 0.00 0.00 0.00 0.00 0.00 0.00 0.00 0.00 0.00 0.00 0.00 0.00 0.00 0.00 0.00 0.00 0.00 0.00 0.00 0.00 0.00 0.00 0.00 0.00 0.00 0.00 0.00 0.00 0.00 0.00 0.00 0.00 0.00 0.00 0.00 0.00 0.00 0.00
0.00 0.00 0.00 0.00 0.00 0.00 0.00 0.00 0.00 0.00 0.00 0.00 0.00 0.00 0.00 0.00 0.00 0.00 0.00 0.00 0.00 0.00 0.00 0.00 0.00 0.00 0.00 0.00 0.00 0.00 0.00 0.00 0.00 0.00 0.00 0.00 0.00 0.00 0.00 0.00 0.00 0.00 0.00 0.00 0.00
0.00 0.00 0.00 0.00 0.00 0.00 0.00 0.00 0.00 0.00 0.00 0.00 0.00 0.00 0.00 0.00 0.00 0.00 0.00 0.00 0.00 0.00 0.00 0.00 0.00 0.00 0.00 0.00 0.00 0.00 0.00 0.00 0.00 0.00 0.00 0.00 0.00 0.00 0.00 0.00 0.00 0.00 0.00 0.00 0.00
0.00 0.00 0.00 0.00 0.00 0.00 0.00 0.00 0.00 0.00 0.00 0.00 0.00 0.00 0.00 0.00 0.00 0.00 0.00 0.00 0.00 0.00 0.00 0.00 0.00 0.00 0.00 0.00 0.00 0.00 0.00 0.00 0.00 0.00 0.00 0.00 0.00 0.00 0.00 0.00 0.00 0.00 0.00 0.00 0.00
0.00 0.00 0.00 0.00 0.00 0.00 0.00 0.00 0.00 0.00 0.00 0.00 0.00 0.00 0.00 0.00 0.00 0.00 0.00 0.00 0.00 0.00 0.00 0.00 0.00 0.00 0.00 0.00 0.00 0.00 0.00 0.00 0.00 0.00 0.00 0.00 0.00 0.00 0.00 0.00 0.00 0.00 0.00 0.00 0.00
0.00 0.00 0.00 0.00 0.00 0.00 0.00 0.00 0.00 0.00 0.00 0.00 0.00 0.00 0.00 0.00 0.00 0.00 0.00 0.00 0.00 0.00 0.00 0.00 0.00 0.00 0.00 0.00 0.00 0.00 0.00 0.00 0.00 0.00 0.00 0.00 0.00 0.00 0.00 0.00 0.00 0.00 0.00 0.00 0.00
0.00 0.00 0.00 0.00 0.00 0.00 0.00 0.00 0.00 0.00 0.00 0.00 0.00 0.00 0.00 0.00 0.00 0.00 0.00 0.00 0.00 0.00 0.00 0.00 0.00 0.00 0.00 0.00 0.00 0.00 0.00 0.00 0.00 0.01 0.00 0.00 0.00 0.00 0.00 0.00 0.00 0.00 0.00 0.00 0.00
0.00 0.00 0.00 0.00 0.00 0.00 0.00 0.00 0.00 0.00 0.00 0.00 0.00 0.00 0.00 0.00 0.00 0.00 0.00 0.00 0.00 0.00 0.00 0.00 0.00 0.00 0.00 0.00 0.00 0.00 0.00 0.00 0.00 0.00 0.01 0.01 0.00 0.00 0.00 0.00 0.00 0.00 0.00 0.00 0.00
0.00 0.00 0.00 0.00 0.00 0.00 0.00 0.00 0.00 0.00 0.00 0.00 0.00 0.00 0.00 0.00 0.00 0.00 0.00 0.00 0.00 0.00 0.00 0.00 0.00 0.00 0.00 0.00 0.00 0.00 0.00 0.00 0.00 0.00 0.00 0.00 0.00 0.00 0.00 0.00 0.00 0.00 0.00 0.00 0.00
0.00 0.00 0.00 0.00 0.00 0.00 0.00 0.00 0.00 0.00 0.00 0.00 0.00 0.00 0.00 0.00 0.00 0.00 0.00 0.00 0.00 0.00 0.00 0.00 0.00 0.00 0.00 0.00 0.00 0.00 0.00 0.00 0.00 0.00 0.00 0.00 0.00 0.00 0.00 0.00 0.00 0.00 0.00 0.00 0.00
0.00 0.00 0.00 0.00 0.00 0.00 0.00 0.00 0.00 0.00 0.00 0.00 0.00 0.00 0.00 0.00 0.00 0.00 0.00 0.00 0.00 0.00 0.00 0.00 0.00 0.00 0.00 0.00 0.00 0.00 0.00 0.00 0.00 0.00 0.00 0.00 0.00 0.00 0.00 0.00 0.00 0.00 0.00 0.01 0.01
0.00 0.00 0.00 0.00 0.00 0.00 0.00 0.00 0.00 0.00 0.00 0.00 0.00 0.00 0.00 0.00 0.00 0.00 0.00 0.00 0.00 0.00 0.00 0.00 0.00 0.00 0.00 0.00 0.00 0.00 0.00 0.00 0.00 0.00 0.00 0.00 0.00 0.00 0.00 0.00 0.00 0.00 0.00 0.00 0.01
MSLP
1017.88 1017.37 1016.85 1016.33 1015.85 1015.39 1014.93 1014.53 1014.17 1013.83 1013.49 1013.16 1012.93 1012.82 1012.64 1012.57 1012.39 1012.63 1011.67 1009.24 1009.12 1008.95 1009.11 1009.65 1010.05 1010.47 1010.64 1010.89 1010.95 1011.39 1012.11 1012.05 1011.00 1010.05 1008.59 1007.97 1007.36 1006.65 1006.47 1006.35 1006.27 1006.19 1006.48 1006.83 1007.98
1017.96 1017.39 1016.81 1016.22 1015.65 1015.13 1014.64 1014.15 1013.83 1013.51 1013.22 1012.95 1012.74 1012.61 1012.52 1012.38 1012.26 1011.27 1008.14 1008.13 1008.52 1008.65 1009.36 1009.66 1010.20 1010.49 1010.98 1010.99 1010.97 1011.35 1011.81 1011.05 1009.73 1008.68 1008.00 1007.77 1007.59 1006.78 1006.61 1006.29 1006.29 1006.39 1006.46 1007.35 1008.29
1017.96 1017.35 1016.70 1016.05 1015.44 1014.89 1014.43 1013.97 1013.59 1013.21 1012.87 1012.57 1012.47 1012.46 1012.40 1012.37 1011.79 1008.82 1007.29 1007.68 1008.41 1008.62 1008.83 1009.22 1009.68 1010.34 1011.03 1011.05 1011.02 1011.01 1010.98 1010.21 1009.21 1008.16 1007.51 1007.13 1006.93 1006.60 1006.09 1005.88 1005.67 1005.65 1006.41 1007.32 1008.47
1017.86 1017.21 1016.56 1015.94 1015.27 1014.64 1014.11 1013.59 1013.14 1012.91 1012.65 1012.39 1012.18 1012.24 1012.25 1012.31 1010.54 1007.55 1007.27 1007.38 1007.60 1008.56 1009.09 1009.31 1009.77 1010.45 1010.97 1011.08 1010.78 1010.88 1010.13 1009.69 1009.01 1008.07 1007.71 1007.21 1006.40 1006.35 1006.19 1004.98 1005.16 1005.23 1006.15 1006.84 1007.99
1017.78 1017.03 1016.30 1015.66 1015.01 1014.37 1013.81 1013.28 1012.82 1012.37 1012.29 1012.26 1011.97 1011.88 1012.05 1011.75 1009.53 1007.33 1007.03 1006.75 1007.36 1008.45 1008.96 1009.36 1009.76 1010.27 1010.69 1010.77 1010.70 1010.53 1009.82 1009.29 1008.63 1008.23 1007.94 1007.56 1006.56 1006.42 1005.81 1004.99 1004.88 1005.35 1006.06 1006.83 1007.37
1017.45 1016.74 1016.06 1015.29 1014.63 1013.97 1013.35 1012.81 1012.43 1012.12 1011.89 1011.93 1012.01 1011.80 1011.55 1010.79 1007.27 1007.33 1007.36 1007.65 1007.73 1008.48 1008.97 1009.05 1009.29 1009.47 1010.00 1010.33 1010.44 1009.73 1009.43 1008.83 1008.30 1007.89 1007.70 1007.49 1006.82 1006.48 1004.95 1004.86 1004.89 1005.54 1005.70 1006.06 1006.98
1017.30 1016.49 1015.68 1014.86 1014.15 1013.51 1012.84 1012.15 1011.68 1011.51 1011.33 1011.52 1011.81 1011.64 1010.88 1008.53 1006.95 1007.34 1007.35 1007.37 1007.61 1007.95 1008.63 1008.68 1008.77 1009.11 1009.54 1010.04 1009.79 1009.55 1009.69 1008.93 1008.27 1007.64 1007.40 1007.05 1006.70 1006.09 1004.14 1004.86 1005.07 1005.30 1005.75 1006.19 1006.44
1017.13 1016.15 1015.25 1014.44 1013.65 1012.97 1012.31 1011.61 1011.11 1010.73 1010.97 1011.23 1011.72 1011.40 1009.63 1007.04 1006.91 1006.89 1007.02 1007.40 1007.78 1007.70 1008.05 1008.46 1008.73 1009.17 1009.57 1009.87 1010.03 1010.03 1009.87 1009.43 1008.29 1007.55 1006.77 1006.65 1006.19 1005.50 1004.38 1004.41 1005.33 1005.50 1005.76 1006.43 1007.03
1016.95 1015.97 1015.02 1014.07 1013.31 1012.64 1012.01 1011.39 1010.81 1010.70 1010.93 1011.25 1011.75 1011.17 1008.43 1006.65 1006.61 1005.95 1006.23 1006.97 1007.59 1007.98 1008.08 1008.32 1008.67 1009.59 1009.92 1010.46 1010.97 1010.99 1010.47 1009.78 1008.85 1007.54 1007.11 1006.73 1006.25 1005.07 1004.23 1004.36 1005.79 1005.79 1005.74 1006.00 1006.67
1016.68 1015.70 1014.69 1013.67 1012.84 1012.28 1011.61 1011.30 1011.03 1010.99 1011.39 1011.31 1010.92 1010.95 1007.91 1006.54 1005.84 1005.77 1006.07 1006.29 1007.18 1008.05 1008.50 1008.75 1009.39 1010.14 1010.77 1011.06 1011.15 1011.03 1010.57 1009.83 1009.10 1008.24 1007.67 1007.25 1006.96 1005.98 1004.87 1004.16 1004.71 1005.72 1006.37 1006.39 1006.30
1016.45 1015.33 1014.42 1013.38 1012.48 1012.09 1011.49 1011.61 1012.05 1011.38 1011.07 1010.59 1009.57 1008.93 1007.35 1006.32 1005.59 1005.49 1005.73 1006.41 1006.83 1007.69 1008.79 1009.21 1009.96 1010.38 1010.47 1010.39 1010.21 1010.32 1010.16 1009.76 1009.08 1008.39 1008.11 1007.63 1007.30 1006.48 1005.73 1004.79 1004.41 1004.95 1006.04 1006.53 1005.98
1016.33 1015.16 1014.13 1013.16 1012.26 1011.72 1011.83 1012.34 1012.84 1012.96 1011.06 1009.15 1008.22 1008.04 1006.91 1006.72 1006.65 1005.67 1005.47 1006.26 1007.02 1007.74 1008.48 1009.67 1009.61 1009.29 1009.09 1009.62 1009.91 1009.91 1009.99 1009.66 1009.08 1008.39 1008.18 1007.78 1007.39 1006.56 1005.66 1005.04 1004.23 1004.01 1004.07 1005.12 1006.05
1016.21 1015.03 1013.68 1012.77 1012.15 1011.81 1012.29 1012.19 1012.26 1012.28 1012.15 1008.58 1007.59 1007.06 1006.39 1006.68 1006.87 1005.95 1005.95 1006.04 1006.65 1007.61 1008.24 1008.81 1008.45 1008.26 1008.78 1009.02 1009.55 1009.61 1009.71 1009.64 1009.31 1008.57 1008.23 1008.12 1007.38 1006.53 1004.83 1004.29 1003.77 1003.66 1003.06 1004.26 1004.49
1016.03 1015.00 1013.75 1012.57 1012.18 1012.77 1012.30 1011.81 1011.78 1011.60 1011.61 1008.98 1007.19 1006.41 1006.29 1006.48 1006.63 1006.05 1005.89 1005.98 1006.66 1007.05 1007.60 1008.16 1007.71 1007.90 1008.29 1008.52 1008.87 1009.00 1008.83 1008.97 1009.30 1009.45 1009.26 1008.51 1008.01 1006.78 1005.07 1004.40 1003.68 1002.91 1002.98 1003.06 1003.93
1016.03 1015.07 1014.18 1013.14 1013.39 1012.90 1012.41 1011.59 1011.26 1011.35 1011.20 1008.88 1007.59 1006.56 1006.83 1007.40 1007.75 1006.89 1007.06 1006.22 1006.95 1007.37 1007.88 1007.51 1007.25 1007.29 1007.52 1007.62 1007.82 1007.93 1008.05 1008.67 1009.18 1009.69 1009.84 1009.11 1009.15 1006.63 1005.89 1005.22 1004.12 1003.19 1002.65 1002.90 1003.14
1015.95 1014.95 1014.23 1013.75 1013.63 1012.53 1012.00 1011.61 1011.36 1012.08 1011.10 1009.78 1009.07 1008.75 1008.62 1008.79 1008.80 1008.44 1008.39 1008.16 1008.71 1008.37 1008.11 1007.76 1007.02 1006.97 1006.68 1006.55 1006.86 1007.11 1008.05 1009.08 1010.11 1010.48 1010.37 1009.29 1009.12 1007.27 1006.09 1004.80 1003.96 1003.51 1002.96 1002.60 1002.91
1015.89 1014.71 1014.12 1014.04 1013.72 1012.17 1012.09 1012.06 1012.70 1012.56 1011.57 1011.62 1011.13 1010.72 1010.98 1011.05 1010.65 1010.67 1011.40 1012.00 1012.27 1011.36 1010.59 1009.72 1008.20 1007.51 1007.22 1006.98 1007.08 1007.64 1008.72 1010.24 1011.09 1011.36 1009.90 1009.02 1009.11 1006.81 1005.25 1004.48 1003.75 1003.49 1003.01 1002.64 1003.05
1015.67 1014.41 1013.76 1013.31 1012.86 1012.41 1012.32 1013.02 1013.81 1013.56 1013.15 1012.72 1012.46 1012.22 1012.59 1012.71 1012.47 1012.61 1012.78 1013.70 1014.09 1013.94 1013.58 1012.65 1010.59 1009.57 1008.93 1008.55 1008.32 1008.49 1009.22 1010.78 1011.03 1011.23 1010.19 1009.47 1008.27 1006.30 1005.22 1005.10 1005.23 1004.52 1004.07 1003.64 1003.58
1015.63 1014.48 1013.99 1013.03 1012.38 1012.24 1013.30 1014.37 1015.01 1014.57 1014.24 1013.91 1013.60 1013.79 1014.06 1013.99 1014.01 1013.83 1014.83 1015.40 1015.15 1015.13 1015.24 1014.62 1012.80 1011.25 1010.27 1009.73 1009.46 1009.64 1009.99 1010.39 1011.01 1011.18 1010.92 1009.81 1007.80 1006.49 1006.43 1006.50 1006.41 1006.05 1005.58 1005.05 1004.51
1017.07 1015.93 1014.37 1012.93 1012.40 1012.62 1014.40 1015.77 1015.60 1015.17 1014.77 1014.57 1014.91 1015.23 1015.50 1015.45 1015.28 1015.17 1015.66 1016.27 1015.93 1015.88 1015.61 1016.00 1015.16 1012.97 1011.62 1010.93 1010.80 1010.93 1011.74 1011.71 1012.03 1012.41 1011.93 1010.52 1009.35 1009.05 1008.59 1008.26 1007.86 1007.28 1006.77 1005.83 1004.79
1017.35 1016.23 1014.29 1012.97 1012.68 1014.39 1016.79 1017.01 1016.22 1015.57 1015.35 1015.72 1015.87 1016.19 1016.48 1016.63 1016.47 1016.42 1016.46 1016.87 1016.50 1016.28 1016.45 1016.63 1016.53 1014.83 1013.39 1013.67 1013.76 1013.02 1013.40 1013.91 1013.55 1013.43 1013.01 1011.97 1010.96 1010.16 1010.02 1009.59 1009.22 1008.56 1007.74 1006.84 1005.54
1019.02 1017.65 1015.16 1013.73 1015.58 1017.95 1018.53 1018.13 1017.11 1016.48 1016.10 1016.20 1016.52 1016.85 1017.21 1017.40 1017.33 1017.17 1017.03 1016.97 1016.81 1016.73 1017.14 1017.45 1017.47 1016.88 1015.95 1015.75 1015.04 1014.93 1015.84 1015.65 1015.32 1015.13 1014.36 1013.49 1012.08 1011.01 1010.62 1010.18 1009.63 1008.96 1008.28 1007.10 1006.13
1020.97 1019.49 1016.42 1015.91 1018.93 1020.22 1019.60 1018.55 1017.60 1016.95 1016.87 1016.80 1017.09 1017.35 1017.67 1017.97 1018.14 1017.69 1017.52 1017.35 1017.18 1017.44 1017.80 1017.99 1018.36 1018.31 1017.30 1017.19 1016.42 1016.76 1016.89 1016.86 1016.62 1016.43 1015.33 1014.20 1012.70 1011.53 1010.98 1010.43 1009.93 1009.45 1008.70 1007.73 1006.41
1021.46 1021.09 1019.89 1019.92 1021.23 1021.35 1021.03 1019.90 1018.71 1017.53 1017.34 1017.38 1017.68 1017.97 1018.31 1018.47 1018.46 1018.41 1018.17 1017.77 1017.63 1017.75 1017.91 1018.32 1019.33 1019.39 1019.04 1018.55 1018.58 1018.01 1017.52 1017.59 1017.55 1017.50 1016.59 1015.04 1013.30 1012.31 1012.03 1011.39 1010.49 1009.81 1009.32 1008.11 1007.15
1022.73 1023.49 1023.17 1022.73 1022.36 1022.28 1021.85 1020.94 1020.02 1019.23 1018.35 1018.07 1018.23 1018.52 1018.80 1019.03 1019.03 1018.89 1018.64 1018.42 1018.17 1018.08 1018.62 1019.26 1020.01 1019.93 1019.63 1019.21 1018.65 1018.11 1017.74 1017.66 1017.52 1017.18 1017.03 1014.95 1014.23 1013.23 1012.74 1012.25 1011.14 1010.37 1009.50 1008.78 1007.62
1023.99 1024.25 1023.89 1023.47 1023.07 1022.42 1021.93 1021.65 1021.00 1020.55 1019.91 1019.23 1019.23 1019.21 1019.16 1019.31 1019.24 1019.29 1019.19 1019.18 1018.91 1018.77 1019.21 1019.97 1020.31 1020.37 1020.09 1019.45 1018.97 1018.41 1017.65 1017.24 1017.03 1016.79 1015.89 1015.44 1013.81 1013.30 1012.48 1011.99 1011.11 1010.49 1009.96 1009.41 1008.41
1024.66 1024.59 1024.32 1024.00 1023.43 1022.85 1022.20 1021.81 1021.56 1021.33 1020.42 1019.95 1019.93 1019.84 1019.42 1019.39 1019.51 1019.27 1019.20 1019.23 1019.00 1019.19 1019.76 1020.47 1020.87 1021.37 1020.86 1020.13 1019.81 1018.85 1016.33 1016.18 1016.00 1015.48 1014.97 1014.86 1013.91 1013.02 1012.24 1011.69 1011.18 1010.87 1010.39 1009.81 1009.14
Thickness
5709 5711 5713 5714 5716 5717 5717 5717 5716 5716 5714 5714 5714 5714 5715 5716 5718 5718 5723 5743 5748 5753 5752 5749 5747 5743 5745 5742 5749 5744 5717 5717 5738 5746 5769 5785 5790 5810 5820 5814 5824 5832 5829 5833 5830
5705 5707 5709 5711 5713 5713 5714 5714 5713 5711 5709 5708 5707 5707 5708 5710 5711 5716 5747 5747 5745 5749 5742 5737 5730 5732 5724 5731 5734 5726 5708 5727 5755 5770 5767 5775 5776 5797 5802 5805 5813 5821 5834 5832 5826
5701 5703 5706 5708 5709 5710 5709 5709 5707 5706 5704 5703 5702 5701 5702 5702 5706 5725 5746 5744 5739 5741 5741 5737 5732 5727 5718 5723 5724 5722 5717 5741 5757 5769 5773 5773 5777 5792 5797 5796 5813 5820 5827 5828 5819
5698 5700 5702 5704 5705 5706 5706 5706 5704 5701 5699 5698 5697 5695 5696 5695 5694 5734 5740 5739 5739 5733 5730 5725 5722 5713 5707 5708 5719 5714 5733 5744 5754 5767 5765 5764 5782 5778 5792 5808 5823 5826 5824 5824 5818
5695 5698 5700 5701 5702 5703 5703 5702 5700 5699 5696 5692 5692 5692 5691 5690 5697 5731 5734 5738 5734 5726 5719 5714 5709 5706 5699 5703 5710 5711 5728 5737 5749 5753 5754 5759 5767 5770 5782 5808 5822 5820 5818 5816 5817
5694 5696 5697 5699 5701 5701 5701 5700 5697 5695 5693 5689 5685 5686 5690 5677 5723 5722 5725 5723 5722 5715 5710 5711 5708 5709 5701 5702 5701 5717 5722 5730 5740 5746 5748 5744 5756 5758 5785 5802 5808 5809 5813 5815 5812
5690 5693 5695 5698 5699 5699 5699 5700 5698 5694 5691 5686 5681 5682 5684 5691 5720 5715 5718 5717 5716 5712 5702 5707 5710 5705 5703 5700 5708 5712 5708 5718 5729 5743 5740 5745 5740 5748 5793 5789 5794 5800 5805 5810 5814
5687 5692 5695 5696 5698 5698 5698 5699 5697 5695 5689 5682 5676 5679 5681 5714 5714 5713 5713 5710 5708 5710 5707 5705 5706 5700 5699 5702 5693 5696 5697 5691 5722 5739 5748 5740 5722 5759 5787 5782 5777 5786 5794 5798 5799
5684 5688 5691 5693 5695 5695 5695 5695 5694 5690 5683 5678 5672 5673 5681 5712 5706 5715 5713 5703 5700 5699 5700 5702 5698 5687 5689 5673 5664 5666 5670 5685 5703 5729 5734 5731 5726 5759 5775 5770 5757 5771 5783 5793 5793
5682 5686 5690 5692 5693 5692 5693 5691 5688 5684 5674 5674 5675 5665 5691 5697 5708 5710 5709 5706 5695 5687 5682 5681 5669 5662 5655 5653 5642 5660 5668 5678 5689 5711 5712 5710 5713 5733 5758 5763 5771 5764 5759 5773 5785
5679 5683 5686 5689 5689 5688 5688 5683 5671 5671 5670 5671 5678 5676 5687 5700 5709 5704 5705 5694 5692 5681 5660 5666 5651 5645 5657 5662 5670 5669 5669 5674 5686 5700 5700 5700 5700 5716 5735 5743 5761 5769 5758 5758 5773
5675 5679 5683 5685 5687 5685 5679 5666 5658 5656 5655 5676 5680 5679 5688 5691 5680 5690 5701 5683 5674 5660 5661 5649 5642 5661 5669 5665 5664 5665 5662 5663 5677 5690 5686 5692 5694 5707 5725 5732 5750 5768 5773 5770 5767
5670 5675 5680 5683 5682 5679 5669 5664 5660 5657 5644 5671 5680 5680 5685 5683 5673 5675 5687 5682 5672 5660 5653 5644 5660 5668 5663 5660 5654 5654 5652 5658 5661 5678 5683 5683 5679 5703 5731 5737 5744 5763 5780 5772 5774
5667 5671 5676 5680 5675 5663 5662 5662 5658 5656 5627 5653 5672 5676 5679 5677 5668 5685 5686 5680 5669 5659 5656 5649 5662 5661 5653 5654 5649 5641 5657 5659 5658 5657 5643 5672 5643 5689 5714 5724 5736 5756 5769 5778 5774
5662 5665 5667 5669 5662 5657 5658 5659 5657 5650 5607 5654 5658 5679 5671 5661 5656 5665 5671 5676 5662 5660 5655 5652 5657 5653 5647 5647 5652 5648 5659 5651 5652 5642 5643 5657 5642 5679 5698 5704 5719 5741 5761 5768 5770
5657 5660 5661 5659 5652 5655 5654 5654 5650 5617 5607 5634 5643 5637 5639 5642 5643 5647 5646 5652 5647 5650 5653 5654 5666 5660 5655 5660 5657 5663 5652 5636 5623 5620 5613 5653 5640 5655 5685 5708 5725 5734 5744 5758 5761
5652 5656 5655 5650 5644 5651 5649 5643 5611 5602 5628 5614 5616 5621 5613 5610 5622 5619 5612 5603 5591 5605 5601 5621 5644 5648 5648 5647 5650 5646 5625 5597 5598 5598 5623 5652 5630 5664 5700 5712 5726 5730 5737 5744 5748
5646 5651 5651 5649 5646 5644 5641 5621 5603 5605 5602 5611 5607 5609 5595 5595 5597 5595 5595 5582 5581 5581 5578 5580 5607 5616 5626 5628 5629 5627 5615 5586 5591 5591 5623 5630 5632 5663 5693 5699 5695 5712 5719 5726 5733
5639 5642 5641 5643 5643 5639 5623 5587 5585 5591 5594 5588 5590 5581 5577 5581 5580 5582 5564 5558 5566 5564 5561 5559 5581 5601 5613 5615 5618 5618 5608 5612 5602 5607 5596 5614 5647 5676 5669 5672 5676 5685 5696 5703 5712
5619 5621 5628 5636 5636 5627 5597 5584 5584 5585 5582 5577 5567 5562 5554 5556 5560 5560 5552 5546 5549 5551 5552 5540 5544 5580 5590 5600 5600 5599 5594 5594 5584 5592 5587 5603 5623 5618 5634 5645 5656 5665 5676 5689 5702
5608 5614 5623 5627 5624 5601 5565 5571 5575 5574 5569 5557 5550 5541 5538 5534 5534 5530 5528 5526 5532 5538 5532 5523 5525 5551 5571 5559 5558 5571 5561 5561 5570 5574 5575 5587 5594 5614 5615 5624 5632 5644 5660 5672 5687
5580 5598 5606 5611 5579 5543 5548 5546 5558 5554 5551 5543 5535 5528 5521 5512 5511 5514 5513 5513 5516 5516 5509 5508 5496 5509 5536 5536 5544 5544 5533 5537 5552 5563 5552 5561 5572 5600 5602 5612 5623 5634 5646 5662 5677
5557 5558 5585 5584 5537 5518 5526 5540 5545 5542 5534 5528 5518 5512 5505 5497 5488 5496 5497 5498 5499 5496 5489 5490 5472 5474 5498 5512 5521 5515 5519 5525 5524 5521 5543 5555 5566 5586 5594 5601 5612 5620 5631 5645 5663
5547 5545 5545 5537 5517 5517 5506 5515 5519 5527 5520 5512 5502 5492 5484 5479 5477 5472 5476 5484 5485 5487 5491 5477 5459 5466 5458 5478 5479 5484 5502 5507 5508 5499 5501 5522 5552 5564 5571 5580 5593 5605 5616 5632 5645
5523 5513 5509 5503 5502 5495 5493 5493 5495 5490 5494 5487 5485 5478 5469 5459 5455 5449 5460 5460 5468 5475 5464 5453 5449 5455 5457 5465 5468 5475 5483 5482 5487 5493 5486 5528 5525 5546 5555 5562 5576 5588 5605 5617 5631
5506 5497 5490 5485 5482 5485 5479 5473 5474 5465 5467 5468 5455 5448 5450 5446 5447 5446 5444 5444 5445 5455 5450 5429 5426 5439 5441 5452 5455 5459 5469 5473 5475 5476 5492 5498 5516 5533 5544 5553 5569 5578 5589 5599 5615
5487 5483 5477 5473 5467 5466 5462 5459 5452 5447 5448 5448 5437 5430 5437 5439 5434 5436 5434 5434 5440 5440 5429 5423 5420 5412 5427 5440 5435 5429 5464 5467 5468 5474 5481 5471 5502 5520 5529 5543 5553 5562 5573 5583 5596